Wind_Speed
5 6 7 7 7 8 9 10 11 13 14 15 16 16 16 16 16 16 16 18 18 18 17 18 17 17 18 19 20 22 26 29 26 23 18 15 12 20 22 15 15 13 14 13 17
5 6 6 7 8 9 10 12 13 15 17 18 18 19 18 18 18 18 19 19 19 18 19 19 19 19 20 21 24 25 30 27 24 21 18 20 19 18 25 25 17 16 20 17 15
5 6 7 7 9 11 13 14 16 17 18 19 19 19 18 18 19 19 19 20 17 16 16 16 17 18 21 22 25 30 32 24 24 22 22 23 23 21 28 30 20 8 29 31 25
6 7 8 10 11 13 14 16 17 18 18 18 19 19 18 18 13 9 11 11 12 14 17 20 22 22 23 25 25 31 29 26 24 23 26 26 24 29 28 31 18 16 9 28 33
8 9 10 12 12 13 14 15 16 18 19 19 20 20 19 19 19 21 23 24 22 20 22 22 22 23 25 26 27 31 29 29 26 26 26 25 29 31 33 31 24 19 22 21 26
9 10 12 12 13 13 13 15 17 19 21 21 21 20 19 19 20 21 20 23 23 21 22 23 24 26 28 28 28 29 30 30 30 29 27 26 27 31 36 31 29 23 22 22 27
10 11 12 12 13 14 15 16 17 20 22 23 21 20 18 21 20 22 21 22 25 25 24 24 26 28 30 30 30 31 34 34 33 27 27 25 29 35 30 28 34 30 26 18 26
10 11 13 14 15 16 17 17 18 19 21 23 21 19 19 20 20 21 26 25 24 24 23 20 21 24 28 28 25 27 31 36 30 27 30 24 41 30 25 29 35 37 31 23 23
11 13 15 16 17 18 19 19 19 19 21 24 23 19 14 16 16 15 25 26 26 25 21 20 23 25 28 28 30 31 32 31 29 28 22 22 42 35 29 29 35 41 38 31 26
13 15 17 19 18 19 20 21 21 21 22 21 22 8 9 17 16 26 29 26 22 20 22 24 26 31 30 28 27 25 31 35 36 28 27 33 44 37 32 32 33 39 40 35 33
15 17 18 20 20 19 21 22 23 19 18 21 23 20 25 19 24 32 35 27 22 19 20 22 29 35 33 32 32 29 29 30 28 15 20 27 36 36 34 36 38 37 42 37 38
17 18 19 21 20 22 23 23 23 18 12 16 15 13 12 7 16 27 27 24 24 24 27 29 39 30 27 29 28 30 34 41 33 27 27 34 37 33 33 38 39 40 42 43 34
18 19 20 22 23 23 24 25 24 20 7 10 7 9 11 8 19 20 23 22 21 23 21 23 29 15 26 28 32 36 37 34 31 25 22 25 37 37 37 37 38 42 43 46 41
18 18 20 21 22 23 25 26 23 17 6 4 10 12 26 21 17 22 30 25 27 25 28 29 30 23 26 29 23 36 35 30 28 26 17 12 13 29 32 38 37 42 44 48 45
19 20 21 22 23 24 24 23 21 18 3 9 12 20 23 25 22 20 20 21 24 24 18 34 33 34 31 26 21 31 27 29 28 30 27 30 19 33 30 34 41 39 39 41 41
19 21 22 23 25 25 23 22 19 3 1 6 24 25 21 20 21 22 23 25 25 17 17 21 25 33 42 40 31 27 20 18 19 22 12 31 19 30 36 41 39 39 41 34 34
19 21 22 23 24 24 23 19 4 9 17 18 33 30 25 24 26 28 28 28 14 16 23 24 16 21 31 38 36 33 21 6 6 10 7 25 20 39 10 20 28 37 35 34 26
19 21 22 26 24 24 21 11 15 12 17 23 28 30 27 24 28 31 24 27 11 15 25 13 14 15 6 33 41 39 34 11 7 8 12 30 13 32 16 27 28 28 35 39 33
19 19 23 25 25 25 14 24 8 10 18 28 29 20 24 27 27 19 20 17 13 15 11 16 15 27 11 17 39 32 29 35 10 11 8 9 14 31 26 31 35 31 34 40 40
16 18 25 24 24 22 29 24 8 13 18 20 17 16 29 32 16 17 14 6 13 14 16 18 23 13 18 13 30 32 26 16 14 4 5 6 11 1 11 15 14 21 32 43 43
15 16 20 19 17 27 33 20 13 12 18 18 18 19 21 19 17 13 7 12 11 19 17 24 12 20 6 5 18 25 20 18 18 10 3 3 5 7 15 24 23 16 19 36 34
15 14 17 17 19 29 23 19 15 18 19 17 17 18 16 16 11 8 10 11 17 17 22 16 11 14 12 6 2 16 19 21 17 13 11 4 5 11 21 19 19 18 16 29 18
11 13 17 15 17 19 18 15 19 23 25 19 21 19 18 13 7 9 13 17 11 21 15 17 9 10 4 7 11 8 9 11 12 1 6 4 3 17 20 12 13 16 17 15 18
10 9 15 18 17 10 10 14 15 20 21 18 24 22 23 16 8 10 17 13 16 18 16 13 8 10 10 15 24 32 19 6 7 4 7 8 10 13 14 20 13 14 14 15 20
6 10 16 14 15 8 10 12 16 20 18 22 18 19 20 18 20 25 26 22 13 14 14 8 5 14 26 37 43 49 39 28 20 15 10 10 9 16 20 20 13 16 9 13 12
4 14 16 16 15 8 8 17 18 16 21 22 23 14 12 16 16 16 21 22 35 17 12 12 10 23 13 23 42 48 44 33 25 22 18 11 7 16 11 17 4 8 9 7 16
10 16 12 17 13 11 16 17 19 16 15 19 21 17 6 11 15 20 26 33 35 24 10 9 6 5 7 11 13 40 38 27 31 30 32 30 26 21 8 12 9 13 9 11 11
Wind_Direction
232 241 246 249 255 260 266 272 274 275 275 276 276 276 275 272 268 261 259 259 258 256 250 243 242 246 245 243 240 241 240 248 255 259 264 271 243 220 220 215 218 247 235 235 236
241 248 250 254 260 266 270 273 274 274 275 275 276 277 277 275 270 265 260 260 256 255 250 244 241 240 239 242 243 242 242 253 259 266 264 258 259 233 228 223 233 246 243 242 262
248 254 261 264 267 269 271 274 275 275 276 277 279 280 280 278 277 273 266 257 250 240 236 237 235 239 241 240 241 246 249 261 265 264 263 255 250 242 232 225 229 260 245 251 253
275 279 279 277 274 275 276 278 278 279 279 281 282 283 284 283 285 268 243 228 225 230 233 247 253 248 246 244 243 247 253 256 258 259 259 256 248 235 229 228 222 235 270 247 243
289 287 282 279 277 277 277 279 280 282 284 286 285 284 285 280 270 262 255 256 257 255 251 251 248 250 247 247 244 250 254 254 256 250 251 253 249 247 230 228 216 222 247 239 244
290 288 286 285 286 286 285 283 283 285 286 287 286 285 284 281 268 263 255 252 259 257 252 251 249 249 255 250 246 249 252 256 256 255 256 256 258 248 241 225 221 218 237 240 226
295 294 292 291 291 290 289 288 287 287 290 291 291 292 288 275 273 267 262 256 255 256 251 247 248 250 249 248 248 249 253 256 256 255 260 259 258 246 253 238 227 223 241 246 226
304 300 298 298 298 297 297 295 295 297 296 295 296 293 287 282 268 259 253 246 244 250 256 251 243 240 241 240 245 249 253 257 259 252 252 252 260 257 257 247 234 229 245 247 246
312 309 307 305 307 307 309 306 306 303 300 298 296 292 284 259 245 251 251 249 238 234 242 236 235 239 242 244 248 246 246 250 255 252 246 245 261 266 259 250 239 231 241 244 248
317 314 310 307 312 318 314 310 310 309 306 298 294 280 234 235 240 244 250 250 253 247 241 237 239 240 239 236 236 237 245 252 256 258 260 255 257 260 256 254 247 234 238 244 244
320 315 312 314 321 316 310 312 312 318 304 293 289 277 261 258 242 244 244 237 242 246 239 230 241 239 244 244 248 252 256 259 259 254 253 249 255 252 249 244 245 237 237 242 241
323 319 320 317 321 317 314 313 315 314 292 292 287 282 269 282 244 251 257 256 251 247 238 240 239 242 252 251 249 253 260 261 269 267 257 262 262 256 248 246 242 244 235 242 243
325 323 321 320 322 320 317 314 315 316 300 284 275 264 285 297 302 285 275 275 285 270 274 263 243 225 244 248 249 249 249 258 266 278 268 273 270 252 243 247 241 239 239 241 238
324 323 323 323 321 320 317 317 317 321 214 266 295 317 318 299 296 298 313 311 298 300 290 279 275 262 252 246 248 241 247 257 264 264 250 251 282 268 256 248 247 236 237 240 241
326 327 328 322 321 323 323 321 323 322 106 320 330 325 343 352 342 330 329 323 326 299 291 277 277 262 248 236 235 248 252 255 256 257 259 262 265 273 271 261 244 241 244 243 242
330 329 327 328 326 324 324 328 328 327 354 324 334 343 340 350 346 338 336 338 333 309 282 288 266 259 261 253 238 234 227 234 238 251 238 249 237 275 257 255 257 248 242 245 244
330 328 327 330 330 335 343 339 341 54 350 333 339 338 331 332 332 329 328 335 336 327 328 329 307 252 247 241 233 227 223 222 229 233 244 243 234 246 252 266 275 263 252 242 247
333 331 334 335 341 353 356 15 61 16 353 340 329 326 316 319 317 323 318 328 332 322 323 322 317 319 212 225 211 205 205 192 211 216 227 231 206 239 267 266 275 265 253 238 242
335 337 341 346 358 5 27 59 55 4 333 325 322 322 318 312 314 325 314 316 321 331 326 314 299 310 285 210 204 204 204 218 255 256 290 208 227 249 264 265 262 251 245 237 240
337 342 344 5 16 24 47 71 55 351 340 351 326 317 320 323 328 331 324 321 324 338 324 315 305 320 356 187 186 201 212 183 200 217 235 183 197 92 278 311 269 252 246 236 237
347 345 2 21 26 39 59 56 36 13 356 354 350 330 345 349 340 341 326 332 328 337 324 328 308 313 339 71 169 189 193 202 199 193 283 147 92 4 338 335 324 308 242 242 250
353 353 18 44 41 57 50 48 38 26 17 10 9 12 353 352 353 349 324 330 333 334 328 324 310 302 317 127 318 162 215 182 162 165 241 148 148 329 319 325 324 318 250 242 233
351 19 39 46 68 67 65 54 44 30 18 13 13 8 2 359 338 338 332 329 311 325 328 332 326 327 4 88 73 63 127 179 159 339 31 82 352 328 309 320 345 322 299 238 211
359 16 45 44 59 68 59 50 43 31 27 17 18 6 351 342 339 299 317 318 297 304 324 335 350 24 57 68 83 62 92 124 169 63 93 49 338 347 10 16 3 300 311 241 208
20 61 63 58 52 57 47 32 28 34 29 16 18 12 11 360 349 351 356 14 4 3 354 22 28 98 77 76 84 71 67 77 95 59 64 9 26 4 14 23 10 316 289 225 199
17 66 68 64 48 46 60 41 27 19 11 17 13 6 17 19 26 5 21 36 28 36 55 70 75 131 32 69 72 68 48 57 61 53 45 33 358 333 337 3 44 279 269 223 194
63 71 69 77 63 57 52 40 28 23 6 6 2 3 41 68 68 60 54 41 37 35 61 60 64 37 51 56 66 47 18 29 45 47 37 22 351 318 307 4 27 147 143 156 182
Height
3117 3117 3117 3116 3116 3115 3115 3114 3114 3113 3112 3111 3110 3110 3110 3109 3109 3109 3108 3108 3107 3108 3108 3108 3109 3110 3111 3111 3111 3111 3111 3110 3113 3115 3119 3120 3121 3124 3126 3129 3132 3134 3137 3140 3139
3116 3116 3115 3114 3113 3113 3112 3111 3110 3109 3108 3107 3107 3106 3106 3105 3105 3105 3104 3103 3102 3103 3103 3103 3104 3105 3106 3107 3106 3106 3104 3106 3110 3112 3115 3116 3117 3119 3120 3123 3127 3129 3133 3136 3138
3114 3114 3113 3112 3111 3110 3109 3108 3107 3105 3104 3103 3102 3101 3101 3100 3100 3099 3098 3097 3097 3097 3098 3098 3100 3101 3101 3101 3101 3099 3098 3104 3106 3107 3109 3110 3111 3113 3114 3115 3122 3125 3127 3132 3135
3112 3112 3111 3110 3109 3108 3106 3105 3103 3101 3100 3099 3097 3096 3096 3096 3097 3094 3093 3093 3092 3093 3094 3094 3094 3095 3095 3095 3096 3094 3095 3098 3100 3103 3102 3103 3106 3104 3108 3110 3117 3118 3120 3126 3129
3110 3109 3108 3107 3105 3104 3103 3101 3099 3097 3095 3094 3093 3091 3091 3091 3090 3089 3089 3088 3088 3089 3089 3088 3089 3089 3089 3089 3090 3088 3091 3091 3094 3095 3096 3098 3097 3099 3102 3106 3112 3114 3115 3119 3124
3107 3105 3104 3103 3101 3101 3100 3098 3095 3093 3090 3089 3088 3087 3087 3085 3083 3082 3082 3082 3082 3083 3082 3082 3083 3083 3083 3083 3085 3083 3083 3085 3087 3089 3091 3093 3092 3093 3093 3103 3107 3110 3111 3114 3119
3104 3102 3101 3099 3098 3097 3096 3094 3092 3089 3086 3083 3083 3082 3081 3079 3078 3077 3077 3076 3075 3074 3075 3075 3076 3077 3075 3077 3077 3077 3077 3078 3079 3084 3085 3088 3085 3080 3091 3098 3102 3104 3107 3110 3113
3101 3100 3098 3096 3095 3093 3092 3090 3088 3085 3082 3078 3077 3077 3074 3072 3071 3070 3067 3067 3067 3067 3068 3068 3069 3069 3069 3070 3071 3071 3072 3070 3073 3078 3080 3085 3070 3082 3088 3091 3095 3099 3102 3106 3109
3099 3097 3094 3092 3091 3089 3087 3084 3083 3080 3077 3073 3072 3071 3069 3065 3063 3062 3056 3056 3058 3059 3061 3064 3062 3063 3063 3063 3065 3064 3062 3063 3068 3071 3074 3077 3066 3075 3081 3083 3085 3091 3095 3099 3104
3097 3094 3090 3088 3087 3085 3082 3078 3076 3075 3071 3067 3065 3068 3065 3061 3061 3052 3050 3051 3052 3053 3055 3056 3056 3054 3055 3057 3053 3057 3058 3057 3060 3066 3069 3068 3060 3069 3075 3076 3078 3083 3087 3091 3096
3093 3090 3086 3083 3083 3081 3077 3074 3074 3072 3067 3062 3060 3058 3055 3057 3053 3046 3045 3047 3047 3049 3049 3049 3048 3043 3047 3051 3052 3055 3054 3052 3055 3060 3061 3059 3055 3061 3066 3068 3069 3074 3078 3083 3087
3090 3087 3083 3080 3079 3076 3072 3070 3068 3068 3063 3056 3054 3052 3050 3049 3046 3041 3041 3043 3042 3040 3040 3041 3034 3042 3045 3046 3048 3049 3048 3043 3051 3055 3059 3056 3049 3054 3057 3058 3063 3066 3069 3073 3081
3087 3084 3081 3077 3074 3072 3067 3064 3061 3059 3059 3054 3052 3049 3048 3048 3042 3039 3038 3037 3035 3034 3034 3032 3029 3033 3037 3039 3040 3040 3040 3043 3047 3051 3052 3050 3042 3044 3048 3049 3054 3056 3061 3064 3070
3084 3082 3079 3075 3073 3067 3063 3059 3055 3054 3054 3055 3051 3047 3042 3043 3042 3038 3033 3034 3032 3027 3027 3023 3023 3027 3028 3029 3033 3031 3036 3040 3042 3045 3046 3047 3038 3038 3041 3042 3046 3049 3053 3056 3061
3082 3079 3075 3071 3067 3064 3060 3054 3051 3050 3055 3054 3050 3047 3043 3039 3036 3034 3030 3027 3023 3019 3021 3014 3015 3017 3019 3021 3027 3025 3034 3034 3037 3037 3042 3042 3046 3028 3035 3035 3037 3042 3046 3049 3054
3079 3076 3073 3069 3064 3060 3056 3051 3048 3051 3051 3052 3049 3043 3040 3038 3035 3030 3027 3024 3018 3014 3012 3006 3004 3001 3004 3013 3019 3022 3026 3029 3032 3033 3033 3032 3042 3019 3026 3027 3030 3034 3038 3042 3047
3077 3073 3069 3066 3062 3056 3052 3048 3050 3051 3057 3052 3044 3041 3038 3033 3030 3027 3023 3019 3016 3011 3004 2995 2990 2988 2992 2998 3006 3013 3018 3024 3027 3026 3022 3027 3031 3013 3019 3024 3027 3028 3032 3037 3039
3075 3072 3067 3063 3058 3053 3050 3049 3050 3060 3056 3051 3044 3038 3035 3031 3028 3023 3020 3016 3014 3011 3004 2996 2986 2983 2981 2983 2989 2995 3007 3012 3014 3014 3015 3019 3015 3007 3021 3022 3020 3021 3023 3026 3029
3073 3070 3066 3061 3056 3053 3050 3046 3059 3058 3055 3048 3041 3033 3031 3029 3025 3020 3016 3014 3011 3010 3008 2997 2986 2979 2974 2975 2985 2991 2997 3007 3010 3012 3013 3007 3011 3015 3013 3012 3011 3013 3013 3018 3022
3073 3069 3065 3061 3056 3053 3046 3050 3058 3056 3052 3047 3041 3036 3028 3022 3021 3019 3014 3012 3010 3009 3006 3000 2987 2975 2971 2970 2978 2988 2997 3006 3010 3011 3011 3001 3004 3008 3009 3006 3004 3005 3005 3009 3013
3072 3069 3066 3062 3060 3053 3049 3055 3057 3055 3050 3046 3040 3034 3030 3023 3020 3018 3015 3011 3010 3008 3005 2999 2995 2978 2974 2972 2979 2989 2992 2997 3001 3006 3003 3000 3006 3008 3005 3003 3000 2996 2998 3002 3005
3071 3071 3067 3063 3061 3056 3057 3058 3057 3053 3049 3046 3039 3034 3029 3024 3021 3018 3015 3013 3010 3007 3003 2999 2992 2986 2979 2977 2977 2983 2987 2991 2995 3002 3002 2997 3005 3002 3001 2999 2995 2991 2992 2996 2996
3071 3069 3067 3065 3063 3062 3061 3060 3056 3051 3047 3043 3039 3035 3030 3026 3023 3019 3016 3013 3009 3005 3002 2999 2995 2989 2983 2983 2982 2982 2986 2990 2993 2994 2997 2999 3004 2999 2997 2994 2988 2987 2988 2989 2992
3072 3070 3068 3065 3064 3064 3062 3060 3056 3053 3049 3045 3041 3035 3030 3025 3023 3018 3013 3009 3007 3004 3001 3000 2998 2996 2994 2991 2989 2987 2986 2990 2994 2997 3000 3003 3002 2996 2992 2987 2983 2985 2985 2986 2990
3074 3071 3068 3069 3066 3065 3064 3061 3057 3054 3050 3046 3043 3038 3032 3026 3023 3018 3013 3009 3004 3003 3002 3001 2999 3001 2999 2995 2988 2989 2994 2997 2996 3001 3003 3004 3000 2998 2992 2985 2985 2987 2987 2988 2989
3076 3072 3070 3069 3068 3067 3065 3061 3059 3055 3051 3047 3043 3038 3034 3029 3027 3022 3016 3012 3008 3004 3002 3002 3001 3001 2999 2999 2995 2995 3002 3003 3002 3003 3004 3003 3000 2998 2995 2992 2991 2990 2986 2988 2991
3075 3072 3073 3073 3072 3070 3066 3064 3061 3058 3055 3048 3043 3038 3035 3032 3030 3025 3020 3016 3011 3008 3005 3004 3003 3003 3005 3003 3002 2998 3014 3016 3017 3012 3009 3005 3007 2997 2996 2993 2991 2989 2989 2989 2991